{"data":{"norad_id":66300,"intl_designator":"2025-248H","name":"ICEYE-X65","alt_names":[],"object_type":"PAYLOAD","status":"ACTIVE","operator":null,"country":"UAE","launch_date":"2025-11-02","launch_site_code":"AFETR","launch_vehicle":null,"mission":null,"orbit_class":"UNKNOWN","rcs_meters":null,"size_class":null,"mass_kg":null,"dimensions":null,"purposes":[],"wikipedia_slug":null,"has_3d_model":false,"image_url":null,"decayed_at":null,"tle_current":{"epoch":"2026-05-25T00:38:11.292576Z","epoch_age_seconds":73570,"freshness":"FRESH","line1":"1 66300U 25248H   26145.02651959  .00003685  00000+0  24649-3 0  9990","line2":"2 66300  45.4047 255.9608 0006493 264.9607  95.0534 15.08765752 32021","mean_motion":15.08765752,"eccentricity":0.0006493,"inclination_deg":45.4047,"raan_deg":255.9608,"arg_perigee_deg":264.9607,"mean_anomaly_deg":95.0534,"bstar":0.00024649,"rev_number":3202,"period_min":95.442251263402,"perigee_km":535.47841760467,"apogee_km":544.4622718025,"semimajor_km":6918.1073447036,"source":"CELESTRAK","updated_at":"2026-05-25T13:38:06.128891Z"}}}